Weather in Markelovo

Russia / Tomsk District     56°42′14″N   83°33′50″E
temp.,
°C
wind,
m/s
gust,
m/s
humid.,
%
clouds,
%
prec.,
mm/h
press.,
hPa
HPBL,
m
7 march, sun
sun701:00−4wsw61293100 1.4 10041204
04:00−7wsw51390100 0.1 1005729
07:00−10wsw51291100 0.1 1009655
10:00−11wsw51290100 0.1 1011656
13:00−7wsw6108368 0.1 1014973
16:00−6wsw6108298 0.1 10151116
19:00−8sw4118589 0.1 1017517
22:00−11sw389131 0.0 1019213
8 march, mon
mon801:00−14ssw239517 0.0 102040
04:00−12sse3689100 0.0 1017194
07:00−10sse61385100 0.0 1014419
10:00−5s71492100 0.1 1009717
13:00−2s71491100 0.2 1006721
16:00−1ssw71493100 0.2 1002856
19:00−1ssw61485100 0.4 10011046
22:00−2sw71492100 0.4 10031066
9 march, tue
tue901:00−8w51187100 0.9 1008819
04:00−12wsw41192100 0.0 1013410
07:00−12sw41193100 0.0 1016455
10:00−12sw51190100 0.0 1019578
13:00−9sw51084100 0.1 1019750
16:00−7sw61187100 0.1 1018928
19:00−8sw41190100 0.1 1019732
22:00−11sw41193100 0.1 1019460
10 march, wed
wed1001:00−13ssw3996100 0.1 1019234
04:00−13ssw3895100 0.0 1018271
07:00−15s499497 0.0 1017248
10:00−12s4989100 0.0 1015327
13:00−7s4890100 0.0 1013414
16:00−4s4792100 0.0 1010543
19:00−3sse3895100 0.1 1006469
22:00−2sse31093100 0.1 1003426
11 march, thu
thu1101:00−1s61497100 1.8 996985
04:00+1ssw61499100 2.8 992834
07:000sw91695100 3.5 9941172
10:00−6wsw81487100 0.2 1000975
13:00−5sw71288100 0.3 10051030
16:00−4sw81386100 0.3 10071415
19:00−8sw61387100 0.4 10091188
22:00−9sw61489100 0.1 10121190